Location: �perlecques
(50.8057°N, 2.1521°E)
Time: 04:28:37
(UTC+00:00)

Vanguard 3 - All Passes

Search period start: 26 July 2021 00:00
Search period end: 05 August 2021 00:00
Orbit: 508 x 3261 km, 33.4° (Epoch: 25 July)

Date Brightness Start Highest point End Pass type
(mag) Time Alt. Az. Time Alt. Az. Time Alt. Az.
26 Jul - 00:41:06 10° W 00:54:50 27° SW 01:05:09 10° SSE visible
26 Jul - 16:49:15 10° S 16:59:16 18° SE 17:10:20 10° E daylight
26 Jul - 18:56:14 10° SW 19:11:51 36° SSE 19:28:02 10° E daylight
26 Jul - 21:08:21 10° WSW 21:26:06 44° S 21:41:38 10° ESE visible
26 Jul - 23:23:27 10° W 23:39:53 36° SSW 23:52:32 10° SE visible
27 Jul - 01:42:24 10° WSW 01:51:26 17° SW 01:58:51 10° SSW visible
27 Jul - 17:42:53 10° SSW 17:56:16 29° SSE 18:11:18 10° E daylight
27 Jul - 19:53:02 10° SW 20:09:53 43° S 20:26:32 10° ESE visible
27 Jul - 22:06:40 10° WSW 22:24:14 42° SSW 22:38:55 10° SE visible
28 Jul - 00:23:13 10° W 00:37:07 26° SW 00:48:00 10° SSE visible
28 Jul - 16:31:08 10° S 16:41:19 20° SE 16:53:05 10° E daylight
28 Jul - 18:38:38 10° SW 18:53:51 38° SSE 19:10:37 10° E daylight
28 Jul - 20:50:41 10° WSW 21:08:09 44° S 21:24:26 10° ESE visible
28 Jul - 23:05:37 10° W 23:22:03 35° SSW 23:35:24 10° SSE visible
29 Jul - 01:24:55 10° WSW 01:33:43 16° SW 01:41:10 10° SSW visible
29 Jul - 15:23:58 10° SE 15:27:04 11° SE 15:30:20 10° ESE daylight
29 Jul - 17:25:18 10° SSW 17:38:18 30° SSE 17:53:45 10° E daylight
29 Jul - 19:35:32 10° SW 19:51:54 43° S 20:09:07 10° ESE daylight
29 Jul - 21:48:58 10° WSW 22:06:18 41° SSW 22:21:41 10° SE visible
30 Jul - 00:05:28 10° W 00:19:16 25° SW 00:30:38 10° S visible
30 Jul - 16:13:23 10° S 16:23:26 21° SE 16:35:36 10° E daylight
30 Jul - 18:21:15 10° SW 18:35:54 39° SSE 18:53:01 10° ESE daylight
30 Jul - 20:33:11 10° WSW 20:50:10 44° S 21:07:03 10° ESE visible
30 Jul - 22:47:55 10° W 23:04:07 34° SSW 23:18:04 10° SSE visible
31 Jul - 01:07:43 10° WSW 01:15:53 15° SW 01:23:06 10° SSW visible
31 Jul - 15:04:49 10° SE 15:09:17 12° SE 15:14:12 10° ESE daylight
31 Jul - 17:07:57 10° SSW 17:20:25 31° SSE 17:36:01 10° E daylight
31 Jul - 19:18:13 10° WSW 19:33:57 44° S 19:51:33 10° ESE daylight
31 Jul - 21:31:27 10° WSW 21:48:20 40° SSW 22:04:16 10° SE visible
31 Jul - 23:47:54 10° W 00:01:22 24° SW 00:13:00 10° S visible
01 Aug - 15:55:56 10° S 16:05:38 22° SE 16:17:54 10° E daylight
01 Aug - 18:04:04 10° SW 18:18:00 40° SSE 18:35:16 10° ESE daylight
01 Aug - 20:15:51 10° WSW 20:32:12 44° S 20:49:29 10° ESE visible
01 Aug - 22:30:23 10° W 22:46:08 32° SSW 23:00:30 10° SSE visible
02 Aug - 00:50:57 10° WSW 00:58:00 13° SW 01:04:29 10° SSW visible
02 Aug - 14:46:37 10° SSE 14:51:35 13° SE 14:57:16 10° ESE daylight
02 Aug - 16:50:49 10° SSW 17:02:36 32° SSE 17:18:09 10° E daylight
02 Aug - 19:01:03 10° WSW 19:16:02 44° S 19:33:50 10° ESE daylight
02 Aug - 21:14:05 10° WSW 21:30:21 39° SSW 21:46:40 10° SE visible
02 Aug - 23:30:32 10° W 23:43:23 22° SW 23:55:04 10° S visible
03 Aug - 15:38:44 10° S 15:47:57 23° SE 16:00:04 10° E daylight
03 Aug - 17:47:02 10° SW 18:00:10 40° SSE 18:17:22 10° ESE daylight
03 Aug - 19:58:41 10° WSW 20:14:14 43° S 20:31:45 10° SE visible
03 Aug - 22:13:02 10° W 22:28:08 30° SSW 22:42:41 10° SSE visible
04 Aug - 00:35:01 10° WSW 00:40:04 12° SW 00:44:55 10° SW visible
04 Aug - 14:28:57 10° SSE 14:34:00 13° SE 14:39:58 10° ESE daylight
04 Aug - 16:33:52 10° SSW 16:44:55 33° SSE 17:00:09 10° E daylight
04 Aug - 18:44:04 10° WSW 18:58:11 43° S 19:15:56 10° ESE daylight
04 Aug - 20:56:54 10° WSW 21:12:22 37° SSW 21:28:50 10° SE visible
04 Aug - 23:13:27 10° W 23:25:23 20° SW 23:36:47 10° S visible
